Showing default

COSMOS 2526, 43432

Orbit data source: Space-Track

COSMOS 2526, 43432 is a Commonwealth of Independent States-origin payload satellite in GEO that was launched on Wed, 18 Apr 2018 UTC via a PROTON-M/BRIZ-M launch vehicle from the Tyuratam Missile And Space Complex (TTMTR). Payload-class satellites include a variety of spacecraft equipped with specific instruments for various scientific and technological missions. These include communications satellites like Starlink; space stations such as the ISS; scientific satellites like the Hubble; Earth observation satellites from companies like Planet Labs, Umbra, and HawkEye 360; GPS; miniature CubeSats for education and research; and military/defense satellites.

Not visible in the next 10 days
Identifier
43432, 2018-037A
Orbit
GEO
Country
Flag of CISCIS
Related business
Manufacturer
Resehetnev ISS
Mission
Operational Defense Communications
Bus & Motor
EKSPRESS-2000?, AOCS
Mass
3,162 kg wet, ~2,000 kg dry
Launch date (UTC)
2018-04-18 (8 years ago)
Launch vehicle
PROTON-M/BRIZ-M
Launch site
Tyuratam Missile And Space Complex (TTMTR)
Object type
Payload
Rocket body
Debris
Shape & HBR
Cyl + 2 Pan, 13.5 m
Radar Cross Section
24.423 m², Large (>1 m²)

Expand to show TLE details & history
Last TLE update: 10 hours ago

TLE from 10 hours ago
0 COSMOS 2526
1 43432U 18037A   25351.65192955 -.00000320  00000-0  00000+0 0  9998
2 43432   0.0359  78.2533 0000468 333.7965  37.2383  1.00271962 28146
Epoch: 2025-12-17T15:38Z
TLE epoch observation values (Epoch: 2025-12-17T15:38:46.713Z)
Latitude
0.02608°
Longitude
128.06591°
Altitude
35,784.451 km
Speed
3.075 km/s
True Right ascension
05h 57m 07s
True Declination
0° 01' 34"
Sunlit
Object was in daylight at epoch
Visualization orbit readout
Latitude
Unknown
Longitude
Unknown
Altitude
Unknown
Speed
Unknown
Apparent Right ascension
Unknown
Apparent Declination
Unknown
Sunlit
N/A
Visualization observer readout
Local Sidereal Time
00:34:02
Azimuth
Unknown
Elevation
Unknown
Doppler factor
Unknown
Orbital elements
Apogee altitude
35,789.589 km
Perigee altitude
35,785.642 km
Semi-major axis
42,165.753 km
Eccentricity
0.00005
Inclination
0.0359°
RAAN
78.2533°
Arg. of periapsis
333.7965°
True anomaly
37.24155°
Mean anomaly
37.2383°
Eccentric anomaly
37.23992°
Mean motion
0.25067 °/min
Orbital period
1,436.15 mins
BSTAR
0
Loading maneuver chart data...
Computing Atmospheric mass density...
Loading historical data...
Loading historical data...
Loading historical data...
Loading historical data...
Loading historical data...
Loading historical data...
Loading historical data...
Other satellites on launch #37 in the year 2018 (2018-04-18 UTC)

Documentation

Showing up to 5 results
|